Location: Keppel Henge
(44.7900°N, 80.9447°W)
Time: 21:45:43
(UTC-04:00)

OTV 5 (USA 277) - Pass Details

Date: 14 October 2017
Orbit: 404 x 417 km, 43.0° (Epoch: 07 September)

Event Time Altitude Azimuth Distance (km) Brightness Sun altitude
Rises 19:32:04 0° 251° (WSW) 2,350 ? -9.9°
Reaches altitude 10° 19:34:12 10° 246° (WSW) 1,489 ? -10.3°
Maximum altitude 19:37:29 52° 169° (S) 521 ? -10.9°
Enters shadow 19:39:45 18° 97° (E) 1,093 ? -11.3°
